SCP
0 0 0 0 0 0 0 0 0 0 0 0 0 0 0 0 0 0 0 0 0 0 0 0 0 0 0 0 0 0 0 0 0 0 0 0 0 0 0 0 0 0 0
0 0 0 0 0 0 0 0 0 0 0 0 0 0 0 0 0 0 0 0 0 0 0 0 0 0 0 0 0 0 0 0 0 0 0 0 0 0 0 0 0 0 0
0 0 0 0 0 0 0 0 0 0 0 0 0 0 0 0 0 0 0 0 0 0 0 0 0 0 0 0 0 0 0 0 0 0 0 0 0 0 0 0 0 0 0
0 0 0 0 0 0 0 0 0 0 0 0 0 0 0 0 0 0 0 0 0 0 0 0 0 0 0 0 0 0 0 0 0 0 0 0 0 0 0 0 0 0 0
0 0 0 0 0 0 0 0 0 0 0 0 0 0 0 0 0 0 0 0 0 0 0 0 0 0 0 0 0 0 0 0 0 0 0 0 0 0 0 0 0 0 0
0 0 0 0 0 0 0 0 0 0 0 0 0 0 0 0 0 0 0 0 0 0 0 0 0 0 0 0 0 0 0 0 0 0 0 0 0 0 0 0 0 0 0
0 0 0 0 0 0 0 0 0 0 0 0 0 0 0 0 0 0 0 0 0 0 0 0 0 0 0 0 0 0 0 0 0 0 0 0 0 0 0 0 0 0 0
0 0 0 0 0 0 0 0 0 0 0 0 0 0 0 0 0 0 0 0 0 0 0 0 0 0 0 0 0 0 0 0 0 0 0 0 0 0 0 0 0 0 0
0 0 0 0 0 0 0 0 0 0 0 0 0 0 0 0 0 0 0 0 0 0 0 0 0 0 0 0 0 0 0 0 0 0 0 0 0 0 0 0 0 0 0
0 0 0 0 0 0 0 0 0 0 0 0 0 0 0 0 0 0 0 0 0 0 0 0 0 0 0 0 0 0 0 0 0 0 0 0 0 0 0 0 0 0 0
0 0 0 0 0 0 0 0 0 0 0 0 0 0 0 0 0 0 0 0 0 0 0 0 0 0 0 0 0 0 0 0 0 0 0 0 0 0 0 0 0 0 0
0 0 0 0 0 0 0 0 0 0 0 0 0 0 0 0 0 0 0 0 0 0 0 0 0 0 0 0 0 0 0 0 0 0 0 0 0 0 0 0 0 0 0
0 0 0 0 0 0 0 0 0 0 0 0 0 0 0 0 0 0 0 0 0 0 0 0 0 0 0 0 0 0 0 0 0 0 0 0 0 0 0 0 0 0 0
0 0 0 0 0 0 0 0 0 0 0 0 0 0 0 0 0 0 0 0 0 0 0 0 0 0 0 0 0 0 0 0 0 0 0 0 0 0 0 0 0 0 0
0 0 0 0 0 0 0 0 0 0 0 0 0 0 0 0 0 0 0 0 0 0 0 0 0 0 0 0 0 0 0 0 0 0 0 0 0 0 0 0 0 0 0
0 0 0 0 0 0 0 0 0 0 0 0 0 0 0 0 0 0 0 0 0 0 0 0 0 0 0 0 0 0 0 0 0 0 0 0 0 0 0 0 0 0 0
0 0 0 0 0 0 0 0 0 0 0 0 0 0 0 0 0 0 0 0 0 0 0 0 0 0 0 0 0 0 0 0 0 0 0 0 0 0 0 0 0 0 0
0 0 0 0 0 0 0 0 0 0 0 0 0 0 0 0 0 0 0 0 0 0 0 0 0 0 0 0 0 0 0 0 0 0 0 0 0 0 0 0 0 0 0
0 0 0 0 0 0 0 0 0 0 0 0 0 0 0 0 0 0 0 0 0 0 0 0 0 0 0 0 0 0 0 0 0 0 0 0 0 0 0 0 0 0 0
0 0 0 0 0 0 0 0 0 0 0 0 0 0 0 0 0 0 0 0 0 0 0 0 0 0 0 0 0 0 0 0 0 0 0 0 0 0 0 0 0 0 0
0 0 0 0 0 0 0 0 0 0 0 0 0 0 0 0 0 0 0 0 0 0 0 0 0 0 0 0 0 0 0 0 0 0 0 0 0 0 0 0 0 0 0
0 0 0 0 0 0 0 0 0 0 0 0 0 0 0 0 0 0 0 0 0 0 0 0 0 0 0 0 0 0 0 0 0 0 0 0 0 0 0 0 0 0 0
0 0 0 0 0 0 0 0 0 0 0 0 0 0 0 0 0 0 0 0 0 0 0 0 0 0 0 0 0 0 0 0 0 0 0 0 0 0 0 0 0 0 0
0 0 0 0 0 0 0 0 0 0 0 0 0 0 0 0 0 0 0 0 0 0 0 0 0 0 0 0 0 0 0 0 0 0 0 0 0 0 0 0 0 0 0
0 0 0 0 0 0 0 0 0 0 0 0 0 0 0 0 0 0 0 0 0 0 0 0 0 0 0 0 0 0 0 0 0 0 0 0 0 0 0 0 0 0 0
0 0 0 0 0 0 0 0 0 0 0 0 0 0 0 0 0 0 0 0 0 0 0 0 0 0 0 0 0 0 0 0 0 0 0 0 0 0 0 0 0 0 0
Wind_Speed_500mb
51 52 54 55 54 53 52 57 57 57 60 61 59 59 65 66 67 64 60 59 57 54 51 48 43 37 28 27 27 25 24 24 16 24 21 15 15 19 25 31 36 40 44
47 51 52 53 51 52 52 54 51 55 58 57 57 59 60 62 61 57 57 57 50 46 46 44 38 30 29 27 24 24 22 20 23 22 17 14 18 24 30 37 41 44 48
49 51 51 52 53 52 53 51 50 51 53 54 58 59 61 62 60 57 57 50 47 47 42 41 33 30 25 22 20 20 23 28 23 16 13 19 25 29 34 41 44 48 51
54 54 55 55 52 52 52 53 54 55 53 56 58 61 64 62 61 61 51 51 48 54 45 32 26 24 20 22 25 27 31 26 19 15 24 22 28 35 40 47 49 52 58
55 58 59 56 54 51 51 53 54 55 55 56 60 63 63 64 66 62 57 51 51 54 40 32 31 28 28 40 30 33 31 24 18 29 22 25 32 36 42 48 54 58 65
58 63 64 63 57 52 50 53 55 56 55 56 59 63 66 68 61 63 54 58 62 60 48 42 26 45 38 30 39 34 29 23 32 27 27 32 35 39 43 46 51 59 73
60 63 68 66 60 55 52 55 58 59 57 59 63 68 70 67 70 62 61 60 70 47 46 43 58 39 34 41 40 37 32 38 36 32 33 37 39 41 45 47 47 56 64
65 67 70 71 65 60 58 57 60 59 58 60 65 69 69 71 68 71 63 69 60 58 56 62 54 33 35 42 42 41 35 42 42 35 38 42 44 44 45 48 53 62 68
73 72 72 73 69 68 66 62 59 60 61 60 63 70 74 73 73 75 73 77 67 71 59 61 42 39 39 42 46 41 47 50 45 42 43 45 49 47 49 51 54 61 72
73 71 69 69 70 69 66 63 58 60 61 63 66 71 74 78 80 82 73 80 76 72 63 61 53 39 42 50 51 51 56 51 48 47 48 49 48 48 50 50 55 58 62
63 63 61 62 65 65 62 63 64 64 63 63 64 69 77 77 89 82 81 85 85 64 64 61 61 44 49 56 56 55 57 52 52 55 54 55 51 51 51 52 52 56 61
54 55 54 54 56 60 62 61 60 59 60 61 61 70 76 80 89 74 75 81 75 68 71 64 64 50 48 58 57 56 58 57 57 59 59 56 56 55 56 55 58 61 62
40 42 44 44 48 53 58 61 59 60 61 58 61 68 73 86 88 79 79 83 76 70 78 65 65 55 52 58 59 57 60 61 60 63 64 62 59 59 58 58 61 62 64
31 34 37 41 44 47 51 56 60 62 62 61 65 69 74 87 90 82 81 86 80 70 79 71 72 59 51 60 60 61 64 65 67 70 68 64 63 64 61 62 60 59 63
27 29 33 37 41 43 49 54 56 56 55 56 57 61 66 75 82 82 88 91 76 80 75 78 78 62 55 66 73 68 68 70 75 74 72 71 69 69 66 62 61 60 61
24 27 30 32 35 39 42 46 48 50 50 51 52 56 56 54 65 65 80 74 76 81 86 86 88 75 65 58 72 77 76 77 80 78 76 75 74 70 65 62 60 59 60
20 23 26 30 33 37 39 41 43 43 46 45 48 52 51 54 60 63 64 69 64 82 91 94 95 88 83 76 69 80 84 86 86 83 81 79 76 70 67 63 60 58 55
23 24 27 30 31 31 32 33 35 37 39 41 43 48 47 51 58 63 62 58 59 67 78 89 101 98 90 78 79 79 86 86 91 88 80 77 76 70 66 63 60 56 51
34 34 33 32 30 28 28 30 32 34 34 34 36 41 44 46 53 55 54 60 65 69 76 81 97 104 100 92 87 85 87 84 87 87 79 78 74 70 66 62 57 56 50
41 36 33 31 28 27 28 28 29 28 29 30 33 36 36 40 49 54 54 58 63 67 69 72 75 84 90 94 93 90 85 83 83 80 79 77 72 69 65 61 55 53 49
42 38 35 35 31 29 27 27 27 27 27 29 31 33 33 34 39 45 53 62 67 71 74 75 75 78 82 83 79 76 76 80 78 75 73 71 70 66 62 58 54 50 46
38 36 35 36 35 33 31 31 31 31 31 32 32 33 33 38 40 42 46 53 59 63 67 71 73 75 76 74 74 75 76 74 75 73 71 69 66 63 62 55 52 48 45
33 33 35 35 34 34 34 35 36 36 36 38 39 40 38 41 43 44 50 51 56 60 67 68 69 74 79 77 74 73 74 74 71 65 65 64 64 65 60 52 48 46 44
30 31 31 31 32 33 34 34 34 35 36 37 38 38 38 40 41 44 46 49 53 55 58 58 62 67 70 72 72 70 68 65 62 61 63 65 65 62 53 50 45 43 42
19 20 20 21 23 23 24 24 25 26 26 28 30 32 33 34 36 40 44 46 48 50 51 52 54 56 57 57 56 52 49 53 55 58 61 61 60 55 51 48 44 44 43
11 12 12 12 12 13 14 15 17 19 21 24 27 29 32 35 38 40 42 44 46 47 48 46 45 46 46 45 45 47 49 55 55 56 56 56 55 52 51 46 43 45 43
Wind_Direction_500mb
220 224 227 231 232 234 234 234 236 236 233 237 237 235 226 221 217 218 219 218 216 214 209 205 201 191 196 194 197 202 210 204 227 208 214 237 277 303 317 323 325 328 331
220 224 228 232 234 236 236 236 239 236 238 240 235 230 224 218 215 214 216 206 204 212 209 200 195 202 197 197 201 208 201 249 230 209 223 259 292 310 314 318 322 326 331
223 227 232 236 238 237 234 236 237 233 235 232 227 225 221 216 218 209 204 205 216 202 211 201 203 196 199 205 224 222 243 225 217 228 256 287 297 306 313 315 320 325 329
227 228 232 236 240 240 236 235 236 237 237 232 226 223 218 217 210 205 212 216 215 214 196 200 198 199 217 242 264 238 223 222 232 263 273 288 302 309 313 317 320 325 330
237 236 237 238 238 239 235 234 237 238 239 232 225 219 217 216 209 219 209 211 207 193 191 206 202 225 254 276 238 229 231 234 257 263 278 293 300 307 310 317 321 325 330
245 241 237 239 239 238 235 235 237 238 236 229 222 220 218 214 219 205 212 207 208 213 205 197 246 258 263 241 232 233 241 262 260 268 282 292 299 302 309 315 320 328 329
249 246 243 242 241 239 238 235 234 236 234 228 223 220 220 214 207 214 210 212 204 204 214 236 252 251 258 240 237 238 249 258 262 271 283 291 294 301 309 311 316 322 322
251 249 247 243 241 239 236 235 236 236 234 231 228 224 217 213 212 208 208 209 215 223 219 243 244 250 250 244 241 244 256 262 264 271 282 288 293 297 301 309 316 318 320
251 250 248 245 242 240 236 234 235 237 235 233 231 225 219 213 211 209 212 217 217 220 229 247 246 256 239 242 244 251 256 262 267 274 279 284 288 298 305 305 312 315 319
253 252 249 245 243 241 239 236 235 238 239 235 230 225 224 216 214 211 218 215 224 223 233 243 258 250 244 241 246 252 260 266 269 273 276 281 287 291 293 299 306 309 314
254 248 246 245 242 241 239 237 234 235 236 236 232 228 224 215 213 222 222 222 222 225 238 240 254 259 245 243 245 251 263 266 266 269 272 276 280 283 290 296 301 305 309
250 247 245 243 240 236 234 234 234 234 236 236 235 232 223 216 215 229 227 226 224 243 236 246 260 262 266 244 244 252 264 263 263 266 268 275 281 286 291 297 302 305 306
244 241 240 237 235 233 231 229 229 230 232 232 232 229 226 218 219 227 226 226 234 236 241 246 262 270 271 241 244 252 259 258 260 263 269 275 280 281 286 292 295 299 304
244 239 234 231 229 228 227 229 230 230 230 229 229 230 227 222 223 233 226 227 241 236 237 249 258 269 264 251 246 254 257 259 260 265 269 272 271 276 283 288 291 298 303
239 235 231 228 226 226 228 231 234 237 239 239 239 237 235 232 234 236 226 227 240 239 241 252 252 255 265 251 248 257 257 258 258 263 265 266 269 274 280 285 290 296 300
238 236 235 236 234 232 230 232 233 236 238 239 238 241 243 242 247 244 233 241 256 247 241 253 251 251 258 267 258 260 261 260 261 261 262 264 267 270 276 279 285 292 295
247 249 246 242 238 236 234 234 237 237 239 236 237 243 243 240 243 247 240 251 258 244 244 250 251 254 260 262 273 266 266 270 267 264 266 265 266 268 270 274 281 285 290
257 249 244 241 237 239 238 237 237 240 241 242 239 240 244 242 242 243 251 254 246 239 247 248 251 256 258 261 268 272 268 272 270 266 265 265 265 265 267 272 278 282 284
238 238 236 233 230 232 238 239 237 236 240 243 245 244 242 244 245 245 241 239 245 246 250 255 256 257 259 263 267 269 270 268 270 269 266 264 262 261 263 269 275 277 279
236 227 230 234 234 236 235 236 238 238 239 242 245 247 247 238 234 236 238 242 241 245 252 257 259 263 265 268 270 272 267 265 269 268 265 261 257 257 262 268 270 270 274
227 227 227 231 233 234 237 240 241 244 244 244 245 243 247 247 241 240 237 238 249 258 262 263 264 263 266 269 272 274 274 273 268 267 262 257 255 257 264 267 264 264 266
226 227 230 236 238 239 241 244 246 248 250 251 254 256 254 254 252 248 243 238 241 251 260 264 267 269 271 271 272 274 274 270 269 268 262 256 255 260 263 260 257 261 264
229 232 234 237 244 248 249 249 251 253 255 257 259 261 261 260 262 263 264 262 256 255 255 256 260 264 268 271 271 270 271 271 271 265 256 253 257 259 256 253 255 257 260
232 235 240 244 247 249 251 253 255 259 262 265 268 270 271 272 273 272 272 271 272 273 271 268 266 266 268 270 272 272 271 266 258 251 249 253 256 255 251 248 253 256 258
241 245 247 249 251 253 257 260 262 265 268 271 274 276 277 277 275 274 275 275 276 276 275 274 272 271 270 269 269 268 263 255 252 254 258 257 253 248 245 249 250 253 255
228 230 233 237 241 245 252 259 266 271 274 276 278 280 282 281 280 279 279 279 278 278 279 278 276 273 271 269 266 263 259 260 259 259 257 251 249 247 246 248 250 251 252
Wind_Speed_850mb
51 52 54 55 54 53 52 57 57 57 60 61 59 59 65 66 67 64 60 59 57 54 51 48 43 37 28 27 27 25 24 24 16 24 21 15 15 19 25 31 36 40 44
47 51 52 53 51 52 52 54 51 55 58 57 57 59 60 62 61 57 57 57 50 46 46 44 38 30 29 27 24 24 22 20 23 22 17 14 18 24 30 37 41 44 48
49 51 51 52 53 52 53 51 50 51 53 54 58 59 61 62 60 57 57 50 47 47 42 41 33 30 25 22 20 20 23 28 23 16 13 19 25 29 34 41 44 48 51
54 54 55 55 52 52 52 53 54 55 53 56 58 61 64 62 61 61 51 51 48 54 45 32 26 24 20 22 25 27 31 26 19 15 24 22 28 35 40 47 49 52 58
55 58 59 56 54 51 51 53 54 55 55 56 60 63 63 64 66 62 57 51 51 54 40 32 31 28 28 40 30 33 31 24 18 29 22 25 32 36 42 48 54 58 65
58 63 64 63 57 52 50 53 55 56 55 56 59 63 66 68 61 63 54 58 62 60 48 42 26 45 38 30 39 34 29 23 32 27 27 32 35 39 43 46 51 59 73
60 63 68 66 60 55 52 55 58 59 57 59 63 68 70 67 70 62 61 60 70 47 46 43 58 39 34 41 40 37 32 38 36 32 33 37 39 41 45 47 47 56 64
65 67 70 71 65 60 58 57 60 59 58 60 65 69 69 71 68 71 63 69 60 58 56 62 54 33 35 42 42 41 35 42 42 35 38 42 44 44 45 48 53 62 68
73 72 72 73 69 68 66 62 59 60 61 60 63 70 74 73 73 75 73 77 67 71 59 61 42 39 39 42 46 41 47 50 45 42 43 45 49 47 49 51 54 61 72
73 71 69 69 70 69 66 63 58 60 61 63 66 71 74 78 80 82 73 80 76 72 63 61 53 39 42 50 51 51 56 51 48 47 48 49 48 48 50 50 55 58 62
63 63 61 62 65 65 62 63 64 64 63 63 64 69 77 77 89 82 81 85 85 64 64 61 61 44 49 56 56 55 57 52 52 55 54 55 51 51 51 52 52 56 61
54 55 54 54 56 60 62 61 60 59 60 61 61 70 76 80 89 74 75 81 75 68 71 64 64 50 48 58 57 56 58 57 57 59 59 56 56 55 56 55 58 61 62
40 42 44 44 48 53 58 61 59 60 61 58 61 68 73 86 88 79 79 83 76 70 78 65 65 55 52 58 59 57 60 61 60 63 64 62 59 59 58 58 61 62 64
31 34 37 41 44 47 51 56 60 62 62 61 65 69 74 87 90 82 81 86 80 70 79 71 72 59 51 60 60 61 64 65 67 70 68 64 63 64 61 62 60 59 63
27 29 33 37 41 43 49 54 56 56 55 56 57 61 66 75 82 82 88 91 76 80 75 78 78 62 55 66 73 68 68 70 75 74 72 71 69 69 66 62 61 60 61
24 27 30 32 35 39 42 46 48 50 50 51 52 56 56 54 65 65 80 74 76 81 86 86 88 75 65 58 72 77 76 77 80 78 76 75 74 70 65 62 60 59 60
20 23 26 30 33 37 39 41 43 43 46 45 48 52 51 54 60 63 64 69 64 82 91 94 95 88 83 76 69 80 84 86 86 83 81 79 76 70 67 63 60 58 55
23 24 27 30 31 31 32 33 35 37 39 41 43 48 47 51 58 63 62 58 59 67 78 89 101 98 90 78 79 79 86 86 91 88 80 77 76 70 66 63 60 56 51
34 34 33 32 30 28 28 30 32 34 34 34 36 41 44 46 53 55 54 60 65 69 76 81 97 104 100 92 87 85 87 84 87 87 79 78 74 70 66 62 57 56 50
41 36 33 31 28 27 28 28 29 28 29 30 33 36 36 40 49 54 54 58 63 67 69 72 75 84 90 94 93 90 85 83 83 80 79 77 72 69 65 61 55 53 49
42 38 35 35 31 29 27 27 27 27 27 29 31 33 33 34 39 45 53 62 67 71 74 75 75 78 82 83 79 76 76 80 78 75 73 71 70 66 62 58 54 50 46
38 36 35 36 35 33 31 31 31 31 31 32 32 33 33 38 40 42 46 53 59 63 67 71 73 75 76 74 74 75 76 74 75 73 71 69 66 63 62 55 52 48 45
33 33 35 35 34 34 34 35 36 36 36 38 39 40 38 41 43 44 50 51 56 60 67 68 69 74 79 77 74 73 74 74 71 65 65 64 64 65 60 52 48 46 44
30 31 31 31 32 33 34 34 34 35 36 37 38 38 38 40 41 44 46 49 53 55 58 58 62 67 70 72 72 70 68 65 62 61 63 65 65 62 53 50 45 43 42
19 20 20 21 23 23 24 24 25 26 26 28 30 32 33 34 36 40 44 46 48 50 51 52 54 56 57 57 56 52 49 53 55 58 61 61 60 55 51 48 44 44 43
11 12 12 12 12 13 14 15 17 19 21 24 27 29 32 35 38 40 42 44 46 47 48 46 45 46 46 45 45 47 49 55 55 56 56 56 55 52 51 46 43 45 43
Wind_Direction_850mb
220 224 227 231 232 234 234 234 236 236 233 237 237 235 226 221 217 218 219 218 216 214 209 205 201 191 196 194 197 202 210 204 227 208 214 237 277 303 317 323 325 328 331
220 224 228 232 234 236 236 236 239 236 238 240 235 230 224 218 215 214 216 206 204 212 209 200 195 202 197 197 201 208 201 249 230 209 223 259 292 310 314 318 322 326 331
223 227 232 236 238 237 234 236 237 233 235 232 227 225 221 216 218 209 204 205 216 202 211 201 203 196 199 205 224 222 243 225 217 228 256 287 297 306 313 315 320 325 329
227 228 232 236 240 240 236 235 236 237 237 232 226 223 218 217 210 205 212 216 215 214 196 200 198 199 217 242 264 238 223 222 232 263 273 288 302 309 313 317 320 325 330
237 236 237 238 238 239 235 234 237 238 239 232 225 219 217 216 209 219 209 211 207 193 191 206 202 225 254 276 238 229 231 234 257 263 278 293 300 307 310 317 321 325 330
245 241 237 239 239 238 235 235 237 238 236 229 222 220 218 214 219 205 212 207 208 213 205 197 246 258 263 241 232 233 241 262 260 268 282 292 299 302 309 315 320 328 329
249 246 243 242 241 239 238 235 234 236 234 228 223 220 220 214 207 214 210 212 204 204 214 236 252 251 258 240 237 238 249 258 262 271 283 291 294 301 309 311 316 322 322
251 249 247 243 241 239 236 235 236 236 234 231 228 224 217 213 212 208 208 209 215 223 219 243 244 250 250 244 241 244 256 262 264 271 282 288 293 297 301 309 316 318 320
251 250 248 245 242 240 236 234 235 237 235 233 231 225 219 213 211 209 212 217 217 220 229 247 246 256 239 242 244 251 256 262 267 274 279 284 288 298 305 305 312 315 319
253 252 249 245 243 241 239 236 235 238 239 235 230 225 224 216 214 211 218 215 224 223 233 243 258 250 244 241 246 252 260 266 269 273 276 281 287 291 293 299 306 309 314
254 248 246 245 242 241 239 237 234 235 236 236 232 228 224 215 213 222 222 222 222 225 238 240 254 259 245 243 245 251 263 266 266 269 272 276 280 283 290 296 301 305 309
250 247 245 243 240 236 234 234 234 234 236 236 235 232 223 216 215 229 227 226 224 243 236 246 260 262 266 244 244 252 264 263 263 266 268 275 281 286 291 297 302 305 306
244 241 240 237 235 233 231 229 229 230 232 232 232 229 226 218 219 227 226 226 234 236 241 246 262 270 271 241 244 252 259 258 260 263 269 275 280 281 286 292 295 299 304
244 239 234 231 229 228 227 229 230 230 230 229 229 230 227 222 223 233 226 227 241 236 237 249 258 269 264 251 246 254 257 259 260 265 269 272 271 276 283 288 291 298 303
239 235 231 228 226 226 228 231 234 237 239 239 239 237 235 232 234 236 226 227 240 239 241 252 252 255 265 251 248 257 257 258 258 263 265 266 269 274 280 285 290 296 300
238 236 235 236 234 232 230 232 233 236 238 239 238 241 243 242 247 244 233 241 256 247 241 253 251 251 258 267 258 260 261 260 261 261 262 264 267 270 276 279 285 292 295
247 249 246 242 238 236 234 234 237 237 239 236 237 243 243 240 243 247 240 251 258 244 244 250 251 254 260 262 273 266 266 270 267 264 266 265 266 268 270 274 281 285 290
257 249 244 241 237 239 238 237 237 240 241 242 239 240 244 242 242 243 251 254 246 239 247 248 251 256 258 261 268 272 268 272 270 266 265 265 265 265 267 272 278 282 284
238 238 236 233 230 232 238 239 237 236 240 243 245 244 242 244 245 245 241 239 245 246 250 255 256 257 259 263 267 269 270 268 270 269 266 264 262 261 263 269 275 277 279
236 227 230 234 234 236 235 236 238 238 239 242 245 247 247 238 234 236 238 242 241 245 252 257 259 263 265 268 270 272 267 265 269 268 265 261 257 257 262 268 270 270 274
227 227 227 231 233 234 237 240 241 244 244 244 245 243 247 247 241 240 237 238 249 258 262 263 264 263 266 269 272 274 274 273 268 267 262 257 255 257 264 267 264 264 266
226 227 230 236 238 239 241 244 246 248 250 251 254 256 254 254 252 248 243 238 241 251 260 264 267 269 271 271 272 274 274 270 269 268 262 256 255 260 263 260 257 261 264
229 232 234 237 244 248 249 249 251 253 255 257 259 261 261 260 262 263 264 262 256 255 255 256 260 264 268 271 271 270 271 271 271 265 256 253 257 259 256 253 255 257 260
232 235 240 244 247 249 251 253 255 259 262 265 268 270 271 272 273 272 272 271 272 273 271 268 266 266 268 270 272 272 271 266 258 251 249 253 256 255 251 248 253 256 258
241 245 247 249 251 253 257 260 262 265 268 271 274 276 277 277 275 274 275 275 276 276 275 274 272 271 270 269 269 268 263 255 252 254 258 257 253 248 245 249 250 253 255
228 230 233 237 241 245 252 259 266 271 274 276 278 280 282 281 280 279 279 279 278 278 279 278 276 273 271 269 266 263 259 260 259 259 257 251 249 247 246 248 250 251 252